Regional Weather Roundup
Issued by NWS

Home | Current Version | Previous Version | Graphics & Text | Print | Product List | Glossary Off
Versions: 1 2 3 4 5 6 7 8 9 10 11 12 13 14 15 16 17 18 19 20 21 22 23 24 25 26 27 28 29 30 31 32 33 34 35 36 37 38 39 40 41 42 43 44 45 46 47 48 49 50

000
ASUS43 KMKX 191411
RWRWI

WISCONSIN REGIONAL WEATHER ROUNDUP
NATIONAL WEATHER SERVICE MILWAUKEE/SULLIVAN WI
900 AM CDT FRI SEP 19 2014

NOTE: "FAIR" INDICATES FEW OR NO CLOUDS BELOW 12,000 FEET WITH NO
SIGNIFICANT WEATHER AND/OR OBSTRUCTIONS TO VISIBILITY.

WIZ001-002-006>008-014>016-023>028-191500-
NORTHWEST WISCONSIN

CITY           SKY/WX    TMP DP  RH WIND       PRES   REMARKS
SUPERIOR ARPT  PTSUNNY   60  53  77 SW14G22   29.84F
ASHLAND        CLOUDY    58  50  75 S14G23    29.88F
HAYWARD        CLOUDY    59  50  72 S17G23    29.93F
SIREN          PTSUNNY   60  49  68 S13G21    29.90F
RICE LAKE      PTSUNNY   55  52  90 SE12      29.96F
LADYSMITH      CLOUDY    56  52  85 S10G17    29.99F
EAU CLAIRE     PTSUNNY   59  51  75 S15       29.97F
MENOMONIE      PTSUNNY   57  54  89 SE8       29.96F
NEW RICHMOND   PTSUNNY   58  49  71 S14       29.93F
OSCEOLA        PTSUNNY   60  50  71 S10G18    29.95R
$$

WIZ003>005-009-010-017-018-191500-
NORTH CENTRAL WISCONSIN

CITY           SKY/WX    TMP DP  RH WIND       PRES   REMARKS
WOODRUFF       PTSUNNY   57  51  82 S15G23    30.00F
RHINELANDER    PTSUNNY   53  49  86 S12G18    30.03F
EAGLE RIVER    MOSUNNY   53  49  89 S8        30.00F
LAND O LAKES   MOSUNNY   54  49  84 S10G22    30.00F
PHILLIPS       PTSUNNY   54  50  87 S12       29.98F
TOMAHAWK       PTSUNNY   52  50  92 S5        30.04F FOG
MEDFORD        MOSUNNY   53  51  92 S13       30.03F FOG
MERRILL        CLOUDY    52  51  94 S7        30.05F FOG
$$

WIZ029-030-035-036-043>047-191500-
CENTRAL WISCONSIN

CITY           SKY/WX    TMP DP  RH WIND       PRES   REMARKS
WAUSAU         CLOUDY    51  50  96 S10       30.05F FOG
MOSINEE        CLOUDY    52  52 100 S9G16     30.07F FOG
MARSHFIELD     CLOUDY    53  51  93 S10       30.05F FOG
STEVENS POINT  CLOUDY    51  49  95 S10G17    30.08F FOG
WAUPACA        CLOUDY    55  54  95 S9        30.12S FOG
WAUTOMA        CLOUDY    56  54  93 S7        30.11F FOG
WISC RAPIDS    CLOUDY    53  51  93 S8G17     30.08F FOG
CAMP DOUGLAS   NOT AVBL
$$

WIZ011>013-019>022-031-037>040-048>050-191500-
NORTHEAST WISCONSIN

CITY           SKY/WX    TMP DP  RH WIND       PRES   REMARKS
ANTIGO         CLOUDY    49  49 100 S13       30.07F FOG
STURGEON BAY   CLOUDY    57  54  88 S14       30.12F
GREEN BAY      CLOUDY    57  57 100 S8        30.11F FOG
MANITOWOC      CLOUDY    61  58  90 S15       30.13F
APPLETON       CLOUDY    55  55 100 S12       30.12F FOG
CLINTONVILLE   CLOUDY    52  52 100 S8        30.11S FOG
OSHKOSH        PTSUNNY   58  56  93 S9        30.11F FOG
$$

WIZ032>034-041-042-053>061-191500-
SOUTHWEST WISCONSIN

CITY           SKY/WX    TMP DP  RH WIND       PRES   REMARKS
LA CROSSE      SUNNY     59  51  75 S13       30.02F
SPARTA         SUNNY     58  49  70 S9G16     30.05F
VIROQUA        FAIR      55  54  98 S9        30.05F
BOSCOBEL       SUNNY     58  52  80 CALM      30.08F
PRAIRIE DU CHI SUNNY     56  52  85 SE6       30.06F FOG
PLATTEVILLE    FAIR      55  53  94 SE9       30.10F
$$

WIZ056-057-062-063-064-067-068-191500-
SOUTH CENTRAL WISCONSIN

CITY           SKY/WX    TMP DP  RH WIND       PRES   REMARKS
BARABOO/DELLS  PTSUNNY   55  53  90 S10       30.09F FOG
LONE ROCK      SUNNY     59  53  80 E8        30.10F HAZE
WATERTOWN      MOSUNNY   58  55  89 S8        30.13S
MADISON        MOSUNNY   59  54  83 S8G18     30.12F
MIDDLETON      FAIR      60  56  87 S7        30.12F
MONROE         MOSUNNY   55  54  94 S9        30.12S FOG
JANESVILLE     NOT AVBL
$$

WIZ051-052-058>065-066-070>072-191500-
SOUTHEAST WISCONSIN

CITY           SKY/WX    TMP DP  RH WIND       PRES   REMARKS
MILWAUKEE      PTSUNNY   60  55  83 S9        30.16S
WAUKESHA       SUNNY     55  54  94 S6        30.16S
MILWAUKEE/TIMM SUNNY     61  52  72 S7        30.16S
RACINE         SUNNY     62  55  77 S12       30.18R
BURLINGTON     SUNNY     55  55 100 CALM      30.15S
KENOSHA        SUNNY     61  54  77 S9        30.16S
FOND DU LAC    MOSUNNY   58  54  86 S10       30.13F
SHEBOYGAN      MOSUNNY   59  57  93 S7        30.14F FOG
WEST BEND      MOSUNNY   55  54  94 S5        30.15F FOG
JUNEAU         MOSUNNY   57  54  91 SE7       30.13F
$$

LSZ147-162-191500-
LAKE SUPERIOR

STATION/POSITION TIME  TEMP    WIND        PRES    WAVE
                       AIR SEA DIR/SP/G            HT/PER
                 (UTC) (F)     (DEG/KT/KT) (MB)    (FT/S)
W MID LAKE BUOY  1350   53 48  190/ 16/ 17 1011.0F   3/ 4
DEVILS ISLAND    1400   58     200/ 15/ 20 1010.7F
PORT WING        1300   61     190/ 14/ 23 1011.5F
SAXON HARBOR     1300   60     190/  8/ 20 1012.9F
$$

LMZ867-665-643>646-191500-
LAKE MICHIGAN

STATION/POSITION TIME  TEMP    WIND        PRES    WAVE
                       AIR SEA DIR/SP/G            HT/PER
                 (UTC) (F)     (DEG/KT/KT) (MB)    (FT/S)
N MID LAKE BUOY  1350   55 58  190/ 19/ 23 1020.2F   4/ 5
NORTHPORT PIER   1401   58     150/ 12/ 20 1019.3F
KEWAUNEE LAKESHO 1300   54     180/  8/ 10 1019.6F
SHEBOYGAN LAKESH 1400   56 51  170/ 13/ 14 1020.8F
PORT WASHINGTON  1300   62     200/  2/  5 1021.7
ATWATER BUOY     1400   60     170/  8/ 12 1022.1S
MILWAUKEE LAKESH 1300   59     180/  4/  5   N/A
S MID LAKE BUOY  1350   62 64  160/ 17/ 19 1021.8R   4/ 5
KENOSHA   LAKESH 1400   60     170/ 11/ 14 1021.0S
$$

TC  - TEMPERATURE IN CELSIUS
VSB - VISIBILITY IN STATUTE MILES
WCI - WIND CHILL INDEX
HX  - HEAT INDEX



USA.gov is the U.S. government's official web portal to all federal, state and local government web resources and services.